Theta_e
314 317 322 326 318 313 315 317 315 317 316 320 321 321 319 322 322 319 331 332 334 338 333 334 334 334 333 332 331 331 331 330 326 328 331 330 324 319 317 314 310 311 315 315 314 315 317 318 319
318 322 324 323 312 313 313 314 317 316 319 320 320 320 322 324 328 329 328 333 335 339 335 334 335 334 333 332 331 330 330 328 325 323 327 326 323 319 317 317 313 310 311 313 313 313 313 314 316
321 321 322 313 311 313 314 314 314 316 319 318 319 319 321 324 326 327 329 334 335 338 335 335 336 335 333 333 331 330 330 328 325 324 325 326 324 321 321 319 318 315 310 309 309 309 310 310 311
322 323 319 312 316 314 313 312 315 316 317 317 318 318 324 325 326 329 332 336 335 335 336 335 336 336 334 333 331 330 330 329 327 326 329 327 327 328 327 326 323 320 319 314 308 307 306 305 306
321 321 313 313 316 316 313 314 316 315 316 317 318 316 323 328 327 331 333 337 336 336 336 335 336 336 334 334 332 331 331 331 329 328 328 328 329 329 329 328 327 326 321 319 316 310 306 304 303
321 317 313 314 314 316 316 316 316 314 316 317 317 317 320 327 328 332 334 333 336 337 336 336 336 336 334 335 334 333 333 331 331 331 331 330 330 329 329 328 328 327 324 320 318 318 313 305 304
316 311 315 313 313 316 316 316 314 313 315 315 317 313 319 325 327 331 334 332 335 335 336 336 335 336 336 335 335 334 334 332 331 331 330 329 329 330 329 328 326 325 325 318 318 318 318 317 309
318 311 314 313 313 315 316 316 316 316 314 315 316 312 315 322 323 329 331 331 331 333 334 330 337 335 335 335 335 334 334 333 332 332 330 329 328 329 328 328 327 325 324 322 320 319 318 318 318
315 308 311 315 313 316 316 314 316 316 315 315 316 315 315 318 319 320 322 325 325 329 330 327 335 339 339 337 335 334 334 333 333 333 331 329 329 330 330 328 326 325 324 323 322 322 321 320 319
314 309 314 315 314 313 315 316 316 316 314 312 313 315 313 315 316 316 316 317 319 322 323 324 324 324 327 334 335 334 332 333 333 333 333 331 330 331 330 328 327 325 324 323 322 321 321 321 320
314 311 313 315 317 316 315 316 316 314 313 314 313 314 314 313 315 315 314 314 314 315 316 318 319 320 322 325 336 332 332 332 336 332 331 330 331 332 330 328 327 325 325 324 323 322 321 320 320
313 314 315 316 316 316 315 316 315 315 316 316 315 313 313 313 314 314 314 314 314 313 313 313 313 315 319 322 330 333 331 332 332 331 331 330 331 330 331 328 330 327 325 324 323 323 321 321 322
314 315 315 316 316 317 317 316 315 316 316 316 315 313 313 313 313 313 313 313 312 312 312 312 312 312 312 320 324 333 330 331 331 330 331 330 331 330 329 329 329 328 325 323 323 323 323 323 322
316 315 316 316 316 316 315 315 316 315 314 314 314 314 313 312 312 312 312 313 313 313 312 312 312 312 312 316 322 329 328 329 330 329 330 331 330 328 327 327 326 324 323 325 324 322 323 322 320
315 313 312 314 315 315 315 313 312 315 314 313 313 313 312 312 312 312 312 313 313 313 313 313 312 312 312 318 326 328 327 326 328 328 327 329 328 327 326 326 325 324 323 321 322 322 321 319 318
314 312 314 313 313 314 313 311 313 314 313 312 312 311 311 311 312 312 312 313 313 313 313 313 312 312 314 318 327 325 326 326 326 326 327 326 325 324 324 323 322 321 320 321 320 319 317 315 315
311 313 313 313 312 312 311 313 313 312 312 312 311 311 311 311 311 311 311 312 312 312 312 312 312 313 318 321 324 324 324 324 324 323 323 323 324 323 321 320 319 320 319 317 315 313 310 309 308
313 313 313 314 313 312 311 310 310 311 311 312 312 311 311 311 312 311 311 311 311 311 312 312 312 313 315 324 322 322 322 322 322 321 321 323 323 321 320 319 318 318 317 313 309 307 304 304 303
313 313 315 314 313 312 310 311 311 311 310 310 311 311 311 312 311 310 309 310 310 311 312 312 312 315 320 322 321 321 322 321 321 320 320 322 320 319 316 316 315 312 308 305 303 301 299 299 299
312 313 312 312 312 311 312 311 310 310 310 311 312 313 313 311 310 309 309 309 310 311 312 312 313 315 319 319 320 320 320 320 320 319 320 320 317 315 311 308 306 303 302 299 298 297 297 297 296
313 312 313 314 313 311 311 310 310 311 311 313 314 315 314 313 312 309 309 309 309 310 312 313 315 316 318 319 319 319 319 318 318 318 318 314 311 307 304 302 300 298 297 297 297 296 296 296 295
314 312 314 314 314 314 311 315 312 311 310 309 313 312 313 312 310 310 309 309 309 310 312 314 316 317 317 318 319 319 319 319 318 318 314 307 303 302 299 298 297 297 296 296 296 295 295 294 294
314 313 313 313 312 314 313 313 312 312 312 312 314 314 314 312 312 311 310 310 309 310 312 314 316 317 316 317 317 317 319 318 317 311 305 302 299 297 297 296 296 296 295 295 295 294 293 292 292
311 313 312 311 312 314 314 313 313 314 315 313 314 315 316 315 312 310 310 309 308 311 313 314 315 314 314 314 315 315 318 317 311 304 302 299 297 296 296 295 295 295 295 294 294 293 292 291 291
312 313 314 316 314 317 312 313 316 313 312 313 315 317 316 314 311 308 309 308 308 310 312 313 312 312 312 313 314 316 317 314 306 303 300 298 297 296 295 295 295 295 294 294 293 292 291 290 290
312 312 314 316 316 315 311 315 316 311 314 314 315 314 313 311 309 308 308 308 308 309 311 313 311 310 313 314 316 315 313 305 303 301 298 297 296 296 295 295 294 294 293 293 292 291 290 289 289
312 314 314 315 299 310 315 313 312 310 309 310 312 311 309 311 309 307 308 308 308 308 309 312 313 313 314 315 314 310 304 302 300 297 296 296 296 295 295 294 294 293 293 292 291 290 289 289 288
311 311 314 311 314 314 315 315 318 313 311 310 309 307 309 309 306 306 307 307 307 307 308 311 313 314 314 313 310 303 301 299 297 296 296 296 296 295 295 294 293 293 292 291 290 289 289 288 288
312 312 313 314 312 315 314 316 310 314 311 310 309 312 310 308 308 307 307 307 306 306 306 309 311 311 311 309 304 301 299 297 296 296 296 296 295 295 295 294 293 292 291 290 290 289 289 288 288
311 313 312 314 313 311 312 319 310 310 311 311 312 314 312 310 309 308 307 306 305 304 305 307 308 308 308 305 301 299 298 296 296 296 296 295 295 295 294 293 292 291 291 290 289 289 288 288 288
Wind_Speed
2 1 2 1 4 5 2 1 1 0 4 10 15 13 11 7 2 3 10 8 6 11 13 11 11 12 12 11 11 10 11 11 12 12 10 10 13 15 17 18 17 16 13 12 12 11 11 11 11
3 2 1 3 5 4 3 3 4 3 16 24 19 14 12 4 7 11 6 8 8 10 12 12 11 10 10 8 8 8 9 10 10 10 8 9 12 14 15 16 18 18 16 14 13 12 10 10 9
4 2 2 4 4 5 5 4 7 13 21 4 6 11 5 3 6 8 8 11 12 10 13 12 12 11 11 11 9 8 8 8 8 8 7 7 10 12 14 16 16 16 16 15 14 14 12 11 9
3 3 5 5 3 1 7 6 7 8 7 7 16 9 6 4 4 9 11 13 12 10 11 12 12 10 10 10 8 7 6 6 6 6 6 6 8 11 13 15 15 15 14 14 14 14 13 11 9
6 4 5 4 3 3 1 10 14 4 4 10 5 5 7 10 12 12 13 15 13 11 11 10 11 9 6 8 8 6 6 5 5 5 6 5 7 8 10 11 12 12 11 11 12 13 13 12 11
4 3 5 2 2 2 4 12 10 6 8 8 11 10 8 13 12 14 16 15 16 14 13 11 11 13 11 8 8 7 6 6 5 5 6 6 5 6 7 9 10 10 9 9 10 10 11 11 10
6 4 4 4 5 3 4 9 13 10 9 4 14 6 10 16 15 15 15 15 18 19 18 17 15 15 14 11 9 8 7 7 5 4 4 3 3 4 6 9 11 13 14 12 8 10 10 10 10
3 5 3 3 6 4 5 5 8 11 4 10 8 7 8 21 19 17 17 15 17 19 19 16 20 20 18 16 13 10 8 7 6 6 5 4 4 3 5 5 6 10 14 17 15 13 11 10 10
3 4 2 0 5 4 9 5 5 7 11 5 5 9 11 23 20 19 18 17 17 19 19 16 19 21 20 19 16 13 11 9 8 8 7 6 6 6 5 4 6 7 8 12 13 13 13 13 12
4 4 5 2 3 5 10 8 10 6 8 5 9 13 21 22 20 19 19 18 17 17 17 16 16 16 18 20 16 14 15 12 11 11 9 9 7 8 9 5 3 4 6 5 7 10 12 13 13
3 4 3 1 1 7 8 5 7 11 3 10 17 20 22 23 22 20 18 16 16 17 17 17 17 17 16 17 17 17 18 20 16 14 12 9 10 15 9 6 5 5 3 3 3 6 7 7 7
3 1 2 3 2 5 7 8 6 10 6 10 12 18 21 23 22 21 18 16 15 15 16 16 17 18 18 19 21 18 17 16 16 15 15 12 13 13 12 7 6 3 3 1 1 2 2 2 4
2 1 2 2 3 5 4 5 5 7 9 9 17 20 19 20 21 20 18 17 16 15 15 15 15 16 19 23 22 20 18 16 15 13 14 14 15 12 9 8 6 4 2 3 4 4 4 2 4
3 1 3 6 5 5 5 4 4 7 15 16 19 20 20 21 21 21 20 18 16 14 14 14 15 17 18 22 20 22 20 19 16 15 14 13 12 11 10 9 9 6 5 3 4 5 3 4 5
1 3 4 9 8 5 6 5 9 10 20 21 22 21 21 21 22 21 19 18 16 15 14 14 15 17 19 22 21 21 22 18 21 17 16 18 15 13 11 11 9 7 6 7 7 4 3 3 4
2 3 2 2 9 3 7 7 5 15 24 26 24 23 23 24 23 22 22 20 18 17 15 15 16 18 21 22 23 22 21 21 19 20 20 18 16 12 11 9 8 8 6 4 3 3 0 1 1
4 3 5 7 11 4 5 6 3 9 25 26 26 26 26 25 26 26 25 22 20 18 17 17 18 20 24 23 25 25 23 22 22 20 18 17 15 13 11 10 9 9 6 4 2 1 2 3 3
6 5 5 5 4 2 4 11 5 10 22 28 27 28 29 30 31 28 27 23 21 19 18 18 20 23 23 25 24 23 21 19 19 17 15 18 15 13 12 11 9 7 5 4 2 1 3 3 4
4 4 4 4 4 6 8 9 11 18 22 26 28 31 34 34 30 28 27 25 23 21 20 20 22 25 27 28 26 25 24 23 21 20 18 18 15 13 11 11 10 9 7 6 5 3 4 5 6
5 5 7 6 4 7 6 11 11 7 16 31 37 38 40 37 35 34 32 29 26 23 21 21 22 24 27 26 28 26 24 23 21 20 20 18 15 15 14 13 12 10 8 6 5 4 4 7 5
6 7 5 8 2 3 3 6 9 11 25 30 35 42 41 45 43 40 37 33 29 27 25 24 24 27 29 29 29 28 26 25 24 23 22 19 18 17 15 13 11 9 6 5 4 3 2 3 4
7 7 6 5 2 5 3 7 5 6 11 10 34 38 46 44 43 42 39 35 33 30 26 25 28 29 29 29 29 27 29 28 26 25 23 23 21 18 15 12 10 8 6 3 3 4 4 5 4
7 4 5 3 3 2 3 5 6 4 8 12 26 34 38 43 47 47 46 39 34 31 30 30 30 30 30 29 29 29 28 28 27 27 27 25 22 18 15 12 9 6 4 3 4 6 6 7 9
6 5 6 4 3 4 10 8 5 6 14 9 24 29 33 38 43 45 45 39 35 33 32 32 32 31 31 30 30 30 29 31 32 32 29 25 22 19 15 12 8 5 3 3 4 6 7 9 9
5 7 2 3 1 8 3 6 14 7 11 14 17 29 22 28 38 43 47 44 39 39 38 37 36 35 34 33 33 32 31 31 32 31 28 25 23 20 16 12 8 5 2 1 3 5 6 8 9
8 9 6 7 5 5 0 7 6 13 22 20 26 28 20 23 32 39 47 45 42 40 39 40 39 37 36 36 34 33 33 33 31 27 25 23 20 17 14 12 9 6 3 0 2 4 5 6 7
7 9 5 2 2 1 6 8 7 10 9 17 28 19 17 23 31 37 45 44 41 39 40 41 40 37 37 37 37 36 35 34 30 27 24 21 19 17 14 12 9 6 3 2 0 2 4 5 7
6 8 2 1 2 6 5 6 9 4 12 13 14 12 19 23 30 36 43 43 39 38 39 40 40 39 39 39 39 38 36 34 30 28 26 23 20 17 15 13 10 8 6 4 2 1 3 5 5
4 5 4 5 6 5 3 7 7 13 11 12 13 27 24 25 31 36 40 40 37 38 41 41 42 42 42 42 41 39 37 35 32 29 26 23 20 18 16 14 12 10 8 7 5 2 2 4 5
1 4 6 5 6 5 3 17 6 6 5 11 15 17 20 26 29 34 38 38 39 40 41 44 44 45 44 43 41 39 37 36 34 30 27 24 22 20 18 16 14 13 11 9 7 4 3 4 5
Wind_Direction
222 198 142 107 59 68 42 81 237 66 46 83 91 107 105 70 68 169 146 186 177 169 162 158 153 147 142 134 122 114 101 89 80 82 82 64 46 42 45 47 49 55 68 69 68 67 66 71 78
151 130 68 97 85 75 289 299 111 133 129 107 91 92 57 56 78 128 133 152 153 165 167 164 158 156 151 140 127 112 101 93 84 77 79 62 51 49 45 48 48 49 52 53 55 62 70 77 85
125 66 62 87 109 151 166 219 158 131 143 142 102 76 82 81 124 143 147 163 161 171 171 173 165 162 164 159 150 134 122 110 98 90 80 75 59 56 51 50 50 52 51 51 50 52 56 65 79
134 68 65 79 86 265 158 194 171 138 139 117 119 72 83 124 123 142 152 156 167 165 174 176 165 169 170 167 154 142 134 117 105 96 100 85 78 65 55 49 43 41 42 46 50 53 55 59 67
76 67 57 67 30 97 94 170 156 128 93 121 140 138 106 119 143 145 153 167 173 168 163 164 167 165 166 163 162 161 157 145 128 117 123 113 94 66 55 47 38 38 42 41 44 47 49 51 52
76 76 67 153 203 144 156 168 146 128 124 120 108 117 142 149 165 151 167 174 176 166 170 179 186 180 184 197 179 172 167 158 146 132 131 128 100 72 58 44 33 24 37 42 46 49 51 52 53
103 80 171 144 176 154 191 135 150 142 124 94 137 114 153 167 176 164 178 175 182 176 179 189 197 198 199 209 206 192 183 176 174 167 148 148 140 104 78 64 46 16 20 39 49 52 51 51 50
91 93 104 189 182 210 204 111 158 153 116 131 164 166 179 178 181 179 186 188 191 194 197 198 195 198 208 210 207 206 201 196 196 198 192 191 187 160 99 73 50 24 13 12 61 56 54 52 51
98 64 94 343 161 216 181 132 143 151 138 134 149 157 165 177 182 184 192 194 196 198 204 208 193 199 206 214 214 213 212 206 210 216 217 218 204 157 163 135 113 87 61 29 45 44 49 48 53
81 97 193 198 200 209 179 163 145 151 137 109 133 148 158 177 186 190 192 195 196 202 207 211 212 213 211 209 207 211 229 217 218 224 222 216 200 193 181 172 159 132 94 71 69 30 35 36 45
117 156 189 209 343 176 174 177 178 149 226 195 186 170 173 181 191 202 205 207 208 210 211 215 217 218 217 202 189 201 212 224 215 219 224 221 199 194 185 208 196 179 135 102 70 51 32 11 43
95 142 179 164 158 151 169 161 160 183 211 211 196 185 183 189 200 207 213 215 222 223 220 220 220 219 216 212 201 201 208 210 211 209 207 209 199 195 204 210 191 160 143 89 352 19 17 320 359
108 224 243 198 172 180 170 194 191 215 197 189 184 186 189 193 200 204 210 217 222 218 218 220 220 215 210 210 209 198 200 205 206 206 205 203 207 213 210 200 180 190 277 307 318 321 316 330 346
161 207 247 245 217 200 194 214 201 216 186 179 188 193 197 202 204 206 208 214 221 225 225 224 221 216 210 205 200 195 200 202 203 202 205 210 200 205 202 201 214 231 275 260 257 289 271 314 334
10 318 317 228 208 210 186 282 236 221 195 195 200 205 208 209 211 214 215 216 220 225 230 227 222 213 202 202 190 190 194 196 203 204 208 213 211 218 219 225 229 223 227 253 252 253 307 347 351
47 48 339 298 160 213 153 263 249 217 198 204 207 209 214 218 221 219 218 218 220 223 227 226 218 207 197 196 185 189 189 198 195 202 206 204 212 217 223 217 219 223 223 200 229 275 296 77 53
358 233 216 312 196 134 174 253 255 216 199 209 213 215 220 222 224 223 221 220 221 220 222 222 213 199 192 190 187 189 193 192 194 196 196 196 202 203 204 203 204 189 195 203 190 113 66 55 73
202 222 243 227 206 184 204 261 248 205 203 217 220 223 226 229 233 227 222 222 221 220 219 216 211 199 191 185 189 189 192 195 199 196 195 195 195 199 198 199 191 190 197 182 159 137 97 95 96
162 195 235 257 222 168 226 252 261 220 220 232 232 232 232 234 232 224 224 223 221 219 217 215 208 196 189 184 187 192 193 195 194 195 197 192 195 195 194 187 180 173 175 165 144 110 81 96 100
234 248 260 273 242 181 248 245 257 208 226 231 235 237 237 233 225 221 221 221 221 221 216 211 202 194 186 189 187 191 192 191 194 198 193 193 193 185 176 171 166 163 169 156 141 125 109 103 118
234 212 228 234 338 261 325 272 245 254 241 247 248 250 247 238 226 218 217 219 217 216 213 207 198 191 190 191 190 191 194 194 194 192 192 185 178 171 168 167 168 163 158 152 131 96 68 66 79
238 207 199 210 130 243 155 281 263 241 246 229 248 244 244 238 231 224 219 218 218 214 207 204 198 194 194 196 197 199 200 196 193 191 184 174 169 169 169 170 165 161 153 132 105 64 37 33 38
229 168 196 203 192 351 215 285 258 235 257 255 252 247 247 242 237 226 220 221 217 210 207 202 199 194 196 197 198 198 202 200 192 182 177 173 170 170 169 168 164 161 140 106 51 36 32 32 30
134 83 49 52 81 259 227 204 198 209 233 250 254 256 251 244 236 228 218 215 211 206 204 200 194 196 198 199 199 201 207 198 186 180 180 177 175 173 173 171 167 155 127 68 40 28 21 17 13
120 104 292 314 327 241 283 233 252 254 248 227 251 265 261 240 227 222 211 207 206 206 204 203 200 199 200 202 203 203 204 198 191 187 186 184 181 179 176 173 172 168 159 76 26 21 9 12 7
196 164 169 214 216 256 1 237 248 227 252 266 255 263 269 233 225 222 211 207 206 207 207 205 205 202 203 205 204 200 197 195 193 193 190 188 186 182 181 180 181 183 174 93 32 16 2 6 4
196 214 173 19 72 357 224 285 290 252 276 271 260 262 243 229 225 219 209 209 209 210 210 208 207 205 206 204 197 193 193 196 195 191 189 189 189 189 186 188 193 188 196 201 266 348 355 2 0
163 161 91 37 227 255 267 259 232 234 229 246 265 230 230 226 221 216 210 211 212 213 212 208 208 207 204 199 195 194 194 196 197 196 195 195 196 195 197 199 197 204 207 211 225 305 348 351 354
142 191 188 140 160 206 286 254 219 210 210 226 250 260 241 225 222 218 213 214 216 215 211 208 207 205 202 199 198 198 197 198 199 199 199 201 201 204 207 206 206 209 212 215 224 241 329 336 342
178 220 163 149 211 230 186 257 184 193 187 215 259 268 253 239 226 222 219 217 216 215 211 209 207 205 204 203 202 200 201 201 200 200 202 204 208 211 212 212 213 217 217 221 225 238 294 307 318